Location: Marsån
(66.4167°N, 22.2833°E)
Time: 09:56:53
(UTC+00:00)

COSMOS 2428 - Pass Details

Date: 24 February 2024
Orbit: 844 x 856 km, 70.9° (Epoch: 15 April)

Event Time Altitude Azimuth Distance (km) Brightness Sun altitude
Rises 18:46:14 0° 308° (NW) 3,441 7.3 -20.5°
Reaches altitude 10° 18:48:42 10° 307° (NW) 2,501 6.3 -20.8°
Maximum altitude 18:54:26 75° 224° (SW) 891 2.8 -21.3°
Enters shadow 18:56:34 40° 148° (SSE) 1,247 3.1 -21.5°
